209  
ASUS44 KMAF 180210  
RWRMAF  
MIDLAND AREA WEATHER ROUNDUP  
NATIONAL WEATHER SERVICE MIDLAND TX  
900 PM CDT WED AUG 17 2022  
   
..IN SOUTHWEST TEXAS AND SOUTHEAST NEW MEXICO
 
 
 
CITY SKY/WX TMP DP RH WIND PRES REMARKS
 
ALPINE CLOUDY 75 62 62 E7 30.19S  
ANDREWS MOCLDY 79 60 52 SE13G23 30.08R  
ARTESIA MOCLDY 77 61 57 E10 30.10S  
BIG SPRING MOCLDY 84 62 46 N12 30.01R  
CARLSBAD MOCLDY 81 66 60 SW6 30.05S  
DRYDEN N/A 79 66 64 SE5 30.01R  
FORT STOCKTON MOCLDY 81 64 56 SE8 30.03R  
GUAD PASS CLOUDY 68 64 87 NE21 30.21F  
HOBBS CLOUDY 72 64 78 SW12 30.11R  
LAMESA NOT AVBL  
MARFA CLOUDY 73 63 70 NE13 30.17S  
MIDLAND AIRPK CLOUDY 85 61 44 W20 30.05R THUNDER  
MIDLAND INTL LGT RAIN 77 64 64 SW9 30.03R  
ODESSA LGT RAIN 78 64 61 NE21 30.06R  
PECOS CLOUDY 82 69 64 W12 30.02S  
PRESIDIO CLOUDY 73 73 100 E3 30.01F  
SEMINOLE MOCLDY 84 59 42 S12 30.12R  
SNYDER PTCLDY 90 58 33 SE10 30.02R  
WINK CLOUDY 82 67 60 S3 30.00S  

   
..OTHER STATIONS IN TEXAS
 
 
 
CITY SKY/WX TMP DP RH WIND PRES REMARKS
 
ABILENE PTCLDY 91 61 36 NE6 29.97R  
AMARILLO CLOUDY 72 61 68 NE12 30.16R  
AUSTIN PTCLDY 89 65 44 S7 29.88F  
BROWNSVILLE NOT AVBL  
CORPUS CHRISTI MOCLDY 83 78 85 SE7 29.92S  
DALLAS FTW MOCLDY 93 68 43 NE14G25 29.89R  
DEL RIO MOCLDY 89 66 46 SE6 29.92R  
EL PASO CLOUDY 72 64 76 NW3 30.10R  
HOUSTON INT MOCLDY 88 75 65 S8 29.90S  
LUBBOCK PTCLDY 86 54 33 E7 30.08R  
SAN ANGELO PTCLDY 91 60 35 E7 29.95R  
SAN ANTONIO PTCLDY 90 66 45 SE9 29.92S  
WACO CLOUDY 92 67 43 E3 29.87S  
WICHITA FALLS CLOUDY 77 62 59 S5 30.07R  

   
..OTHER LOCATIONS IN NEW MEXICO
 
 
 
CITY SKY/WX TMP DP RH WIND PRES REMARKS
 
ALAMOGORDO MOCLDY 73 64 73 CALM 30.14R  
ALBUQUERQUE MOCLDY 79 55 43 S13 30.21R  
CANNON AFB MOCLDY 75 56 51 SE17 30.17R  
CLOVIS CLOUDY 80 56 43 S15 30.18R  
HOLLOMAN AFB CLOUDY 75 64 70 CALM 30.16R  
ROSWELL MOCLDY 85 61 44 S10 30.09R  
RUIDOSO N/A 63 61 94 W3 30.34S  
SANTA FE LGT RAIN 64 61 90 N10 30.30R  
TRUTH OR CONSE CLOUDY 76 60 57 CALM 30.17R  
TUCUMCARI LGT RAIN 71 64 78 NW21G26 30.18R  

 
 
 
CLICK HERE TO GO TO PREVIOUS BULLETINS.

The Nexlab TX Page
The Nexlab NM Page Main Text Page